Presure
172 167 175 177 176 176 171 175 184 184 178 180 178 176 182 186 193 189 192 203 206 206 203 203 197 190 218 213 211 215 213 210 111 218 216 240 223 234 228 246 249 278 293 254
182 172 176 181 173 178 179 187 186 180 170 178 177 179 187 182 188 191 199 196 202 210 211 209 200 189 207 201 208 216 219 220 172 228 227 234 244 261 286 299 317 349 365 307
149 175 174 186 180 184 180 179 184 189 192 191 125 190 190 188 208 206 198 222 213 204 193 220 199 196 173 218 224 219 223 229 222 240 269 251 309 330 260 369 377 345 391 394
190 189 196 194 191 184 178 125 189 160 180 185 187 195 198 188 208 211 201 200 202 208 213 208 219 215 221 225 236 230 247 265 297 324 347 346 390 395 400 411 423 461 387 295
195 201 128 188 175 184 169 177 188 203 196 200 204 220 221 219 216 183 215 124 151 230 215 224 238 237 309 300 338 329 372 393 397 405 409 335 340 323 322 321 298 301 426 386
185 187 188 221 200 187 190 198 94 213 201 213 214 206 205 192 198 206 202 227 212 268 305 326 270 264 253 251 235 401 252 325 321 321 315 305 318 355 415 421 477 472 466 458
123 183 187 171 228 188 236 160 86 222 214 159 205 229 263 221 247 285 235 286 397 387 276 352 343 335 331 324 316 317 318 318 302 324 388 419 415 469 463 459 448 443 441 443
203 197 205 214 191 224 213 208 201 221 220 228 219 224 220 321 363 357 346 333 331 331 330 330 332 334 333 334 337 345 398 385 323 370 445 461 438 450 440 433 430 430 428 426
204 186 215 215 186 213 258 227 219 231 221 237 83 281 347 338 327 336 336 334 345 347 347 346 339 330 320 336 377 409 409 450 476 465 448 439 432 426 420 417 415 412 418 422
217 214 227 206 259 267 271 223 214 79 289 350 340 338 331 326 327 327 321 318 318 348 357 342 333 329 407 426 456 446 450 444 435 424 414 415 412 406 406 409 361 420 428 436
244 245 272 241 245 236 215 258 163 343 335 331 329 328 323 315 318 318 316 355 407 408 405 406 434 449 440 450 451 436 422 411 408 405 404 405 405 409 418 426 438 258 431 430
240 258 215 244 233 232 297 247 158 325 316 325 329 328 323 322 313 415 424 430 437 443 452 439 424 438 435 423 414 409 401 400 398 400 405 410 426 436 448 442 424 421 417 417
249 251 264 330 329 334 170 84 312 323 321 316 313 326 325 312 315 381 446 440 439 434 428 420 422 411 405 401 397 398 397 395 399 405 429 437 425 422 407 364 355 360 365 366
301 341 129 334 321 317 307 314 305 290 299 309 311 310 310 350 303 399 442 432 417 405 408 413 398 391 393 388 390 389 393 395 406 420 418 402 365 332 319 328 338 340 351 357
328 327 321 312 309 302 307 288 287 283 281 291 300 297 301 352 349 387 386 400 396 401 399 386 383 387 385 385 383 383 390 397 406 402 362 337 336 333 334 336 339 345 353 360
319 312 311 301 297 293 291 285 281 277 272 292 291 288 295 342 343 333 368 386 388 397 379 377 377 379 376 383 377 387 391 406 387 338 326 321 323 328 330 330 332 330 334 343
307 304 298 298 295 292 290 284 276 269 263 277 281 278 280 339 337 337 320 384 379 389 375 371 368 373 382 374 380 381 383 370 326 315 321 320 316 321 328 334 331 330 335 335
300 297 295 287 275 289 284 280 271 261 255 256 271 274 284 328 339 333 326 324 370 384 375 371 368 369 386 369 379 378 368 321 308 317 317 312 312 314 313 319 316 314 322 327
292 289 288 282 283 291 282 275 264 256 254 247 263 271 285 304 349 331 331 314 355 380 370 365 365 373 382 369 375 389 325 308 315 310 308 299 296 293 297 299 300 302 302 308
283 278 283 281 278 287 283 274 261 256 251 248 261 264 280 296 352 338 331 321 338 376 369 361 362 375 372 371 374 349 313 308 309 303 294 292 290 289 290 291 294 298 302 298
287 284 284 276 282 289 285 271 267 261 253 256 264 264 278 293 352 344 327 325 309 358 368 361 363 375 367 367 372 322 306 309 299 295 291 289 286 288 285 290 293 292 296 296
297 273 271 291 291 293 280 272 265 266 252 261 266 271 281 295 361 350 332 329 308 323 363 358 359 375 366 367 362 314 306 298 294 289 288 284 287 289 280 276 274 272 276 276
270 278 302 299 292 284 271 264 266 259 262 264 269 277 285 306 373 354 328 328 322 325 361 358 354 369 367 367 348 308 303 292 291 285 285 282 282 279 282 282 276 277 276 270
312 314 306 289 284 268 261 262 262 260 259 267 276 284 291 385 376 360 336 322 319 293 315 357 349 364 372 365 339 306 299 290 289 286 282 283 280 276 277 269 263 270 351 353
290 285 284 281 263 261 262 260 258 261 264 273 277 289 390 392 383 354 340 323 329 296 315 358 349 357 380 365 337 307 295 290 284 288 281 278 274 280 271 273 255 254 323 322
285 281 275 265 263 261 262 264 264 265 273 277 291 381 400 387 373 359 341 320 326 306 315 353 350 351 377 365 343 306 294 290 280 281 278 272 279 269 272 255 278 308 307 310
283 280 278 276 275 273 272 271 276 281 291 305 420 394 390 382 370 362 349 326 323 317 310 326 353 346 365 369 362 305 296 288 283 279 278 270 272 274 256 277 294 289 290 302
Wind_Speed
74 79 80 81 84 89 87 93 92 90 94 98 95 95 100 103 106 104 105 108 111 113 116 117 106 99 121 126 125 130 128 123 53 130 123 133 123 133 127 140 140 135 132 132
78 81 82 85 90 95 97 96 96 98 95 100 93 99 108 104 110 112 117 114 117 120 122 123 110 98 128 112 124 133 135 136 98 140 136 132 141 140 138 137 136 123 113 107
69 88 87 89 95 95 99 104 104 105 105 109 61 110 110 107 116 119 101 119 120 114 102 129 111 109 99 130 136 133 140 142 130 144 142 137 134 130 123 115 112 106 107 105
93 95 92 94 94 96 99 60 108 92 103 109 110 114 118 99 124 124 108 118 119 127 132 131 137 134 133 132 139 139 146 144 136 128 121 118 108 106 105 103 99 86 88 97
98 99 56 102 91 100 94 101 107 116 118 120 121 106 125 127 128 97 129 58 81 138 131 141 141 140 133 126 116 119 111 104 104 102 101 104 102 102 103 102 98 98 76 79
103 102 102 104 109 109 109 113 32 120 121 129 130 120 125 108 119 132 124 133 128 131 133 123 135 135 131 131 129 97 110 99 98 98 97 97 96 96 83 80 58 55 53 52
61 97 104 78 107 105 111 86 30 123 113 82 124 125 115 133 126 128 133 114 96 97 120 99 98 98 97 98 98 98 97 96 94 96 87 83 81 61 58 55 53 52 51 50
122 121 118 118 114 112 124 128 122 130 134 135 132 139 138 111 97 96 96 99 99 99 98 99 99 97 96 95 95 94 85 86 89 85 70 62 62 52 52 52 50 48 48 47
127 116 117 128 96 131 115 132 136 123 123 137 19 113 92 93 94 94 94 94 95 94 93 92 91 88 85 85 83 81 80 65 53 51 52 51 50 49 49 49 48 49 48 45
125 129 131 120 124 128 128 138 134 14 74 88 86 86 87 88 88 88 88 87 87 86 85 84 83 82 79 74 61 58 54 50 49 48 48 48 47 49 49 50 44 48 45 43
124 129 131 133 132 135 123 117 62 83 83 83 83 83 83 83 83 83 84 79 73 73 75 74 65 58 59 55 48 47 48 48 47 46 47 47 48 49 47 45 41 26 29 28
128 122 135 131 117 124 101 60 44 77 81 81 79 78 78 78 78 66 65 64 60 58 56 54 55 50 46 47 46 45 44 44 44 45 44 43 40 36 33 25 22 19 20 23
106 105 109 84 80 72 39 25 75 72 71 72 74 72 72 73 72 64 53 53 52 52 51 49 45 45 45 44 42 41 39 41 40 40 36 30 21 17 15 10 12 12 12 11
102 73 46 70 72 69 69 66 68 72 71 69 69 69 69 64 69 53 47 48 48 48 47 41 43 44 41 39 38 38 38 36 34 28 20 14 9 12 15 14 13 12 11 9
71 69 68 69 66 66 62 67 69 69 71 70 67 69 69 61 60 52 51 46 45 44 40 40 42 40 37 36 36 35 32 29 22 16 7 5 6 8 9 9 9 9 10 8
66 66 65 64 65 64 63 64 64 67 69 67 67 70 70 64 62 61 52 47 43 40 38 38 39 36 35 33 33 29 26 20 12 2 2 4 5 5 5 6 7 7 7 7
65 65 65 64 63 63 63 63 64 64 67 68 67 69 70 64 63 60 60 45 44 41 38 38 37 34 32 29 28 23 15 8 4 5 2 2 3 2 5 8 8 8 8 7
63 64 63 62 64 64 65 64 64 64 66 69 68 67 67 66 60 59 57 56 43 42 38 37 35 32 28 25 23 17 10 7 7 5 4 3 1 2 4 8 8 7 8 7
64 64 63 62 64 64 64 64 63 64 65 68 69 70 68 68 57 58 54 55 43 37 38 38 35 31 25 22 18 17 10 10 9 9 8 8 6 3 1 1 3 4 5 6
65 65 64 65 65 65 65 64 64 64 64 65 65 66 69 72 58 56 52 53 47 36 34 35 33 29 23 22 16 11 13 13 12 12 12 11 7 5 5 4 3 2 3 5
66 66 66 66 67 67 66 64 64 64 65 65 64 64 68 73 56 53 51 48 50 38 35 33 31 26 21 20 15 15 15 16 15 15 14 12 10 9 8 7 7 6 6 5
67 66 67 68 67 67 65 64 64 64 64 65 64 66 69 75 54 51 50 41 46 43 33 32 30 24 20 18 14 19 19 19 19 17 16 14 12 11 12 11 10 10 11 11
68 70 70 68 67 66 66 66 67 66 68 68 67 67 70 77 54 47 49 45 40 38 31 29 28 25 20 18 17 22 23 22 21 18 17 15 15 15 12 12 13 14 15 17
69 69 68 68 67 66 67 68 68 68 70 75 73 73 76 57 52 45 41 41 40 41 33 27 27 24 20 18 21 26 25 24 23 20 18 16 17 15 14 14 17 16 4 2
67 68 68 68 67 68 69 69 70 72 75 78 80 80 61 53 44 45 40 38 37 38 32 26 25 22 21 18 24 29 29 27 25 22 19 19 18 14 15 14 20 21 7 3
69 70 70 69 69 70 72 74 75 77 79 81 86 64 51 48 43 40 39 38 35 34 30 25 24 21 20 19 25 32 32 29 26 23 21 20 17 17 14 22 10 9 9 10
73 74 74 75 75 75 75 76 79 81 84 86 51 53 51 48 44 40 37 38 34 31 29 26 23 20 20 19 23 35 35 31 29 26 24 21 20 17 21 11 4 7 10 13
Wind_Direction
289 290 290 290 291 290 292 292 294 292 294 293 297 299 298 296 295 298 297 291 291 292 292 293 300 301 290 295 298 296 299 301 288 300 298 291 299 298 296 292 290 289 288 289
282 288 290 290 291 292 292 290 290 291 298 297 301 300 296 300 300 299 296 299 296 292 292 294 300 297 300 301 301 296 296 295 296 299 298 294 295 292 290 289 290 288 286 287
293 289 291 288 288 286 288 290 290 288 286 287 289 293 295 301 289 292 298 285 292 298 298 289 289 298 298 297 294 296 296 295 295 292 289 293 289 289 291 288 287 288 287 286
285 286 285 284 283 284 286 288 285 290 293 294 294 293 296 297 292 292 294 303 300 298 295 297 292 295 296 295 292 295 291 291 289 288 288 289 290 290 291 290 291 290 289 288
287 286 291 286 286 287 294 296 293 285 294 294 294 297 286 287 290 294 296 293 297 293 298 295 289 291 292 290 289 289 287 289 290 293 293 290 291 290 290 290 289 289 290 287
287 286 286 284 284 290 290 288 306 286 297 289 292 300 300 304 303 299 299 294 298 286 292 287 288 288 290 288 290 293 289 290 289 289 290 290 291 290 296 295 292 291 289 287
286 290 289 287 286 284 288 290 305 286 299 303 302 294 291 297 294 297 294 293 293 292 292 292 291 290 291 291 291 290 290 290 290 292 296 297 297 297 296 295 294 293 291 290
282 286 287 285 298 291 290 291 301 294 289 290 296 295 297 296 295 295 294 294 294 294 293 293 294 294 295 294 293 293 298 296 295 296 297 297 297 298 297 297 296 295 294 292
284 298 294 287 298 290 299 285 289 300 301 292 295 299 297 296 295 295 294 294 294 295 295 295 296 297 296 295 297 298 298 301 303 302 302 302 301 300 298 297 296 295 293 292
282 283 287 300 300 298 297 291 297 288 298 299 298 297 297 297 298 298 298 299 299 297 296 297 297 297 299 299 303 303 305 307 307 306 305 303 301 299 298 296 287 292 292 290
292 292 296 291 290 290 299 296 298 301 300 300 300 301 301 301 301 301 300 298 297 298 299 301 304 306 305 308 308 307 308 309 308 306 304 301 300 299 298 295 295 262 294 293
288 290 289 291 293 291 297 300 302 302 301 302 301 301 302 303 304 301 299 300 302 304 308 310 308 312 311 310 309 310 310 308 307 307 306 304 302 303 303 305 311 309 296 290
290 291 293 295 297 299 294 287 303 303 304 304 306 307 307 306 305 306 310 312 312 312 312 311 312 310 312 311 311 310 312 312 314 311 310 313 318 320 321 325 326 331 336 335
292 294 283 296 298 300 301 302 303 304 307 308 309 309 309 311 308 312 317 316 316 313 311 313 309 311 312 312 313 315 317 318 318 318 323 328 331 307 305 312 323 325 336 338
295 295 296 298 299 301 300 302 303 306 307 309 311 312 313 317 316 320 319 318 316 313 314 310 310 314 315 316 317 318 321 321 324 328 333 319 315 328 339 353 2 8 11 2
294 294 296 298 299 299 300 300 302 304 307 313 314 314 316 323 322 320 321 320 319 316 313 312 315 318 317 317 318 322 324 326 321 303 282 286 305 332 357 12 22 29 32 28
294 296 298 298 297 298 299 300 302 305 307 311 314 314 315 322 321 320 318 321 320 317 317 316 318 318 317 317 320 321 322 308 227 239 228 243 288 348 44 63 60 61 57 55
293 294 295 296 297 298 299 299 301 304 306 308 312 313 314 325 319 318 318 318 322 318 318 316 319 318 316 315 319 311 287 211 221 207 179 178 149 79 68 78 84 85 76 74
292 294 294 295 296 294 294 294 297 302 305 308 311 313 317 325 315 315 316 313 319 320 316 316 318 318 316 312 313 310 207 211 195 194 179 199 211 217 214 112 110 117 121 118
290 291 293 294 294 292 292 293 296 298 302 304 307 309 317 322 312 310 313 310 314 322 316 314 316 317 315 310 308 224 202 205 195 199 206 213 219 228 242 252 252 214 189 179
289 290 291 292 293 291 291 293 294 297 299 303 307 308 315 319 308 306 307 307 309 319 316 314 315 313 307 304 293 205 203 201 202 208 214 209 215 220 232 245 257 259 260 246
286 289 290 289 290 290 291 293 296 297 299 303 306 310 314 317 305 300 300 303 302 307 312 309 313 311 302 296 259 204 204 206 208 213 216 217 215 220 225 233 235 230 232 224
289 290 290 290 292 293 295 297 299 300 301 303 306 309 313 314 299 295 294 299 298 301 307 304 307 308 296 288 231 205 206 210 213 214 219 222 222 225 233 242 242 247 249 243
286 286 287 291 292 293 296 298 298 300 301 303 305 309 311 300 294 289 283 289 292 297 300 297 299 302 286 278 223 207 207 213 216 215 218 224 231 236 238 233 236 248 277 196
288 289 289 289 292 293 294 295 297 299 300 302 304 305 297 292 285 282 278 281 284 286 291 292 290 295 286 267 220 208 210 213 217 213 213 224 235 239 245 254 238 245 20 341
288 288 289 290 291 292 293 295 296 296 297 299 300 296 291 286 280 275 268 273 276 278 285 286 283 285 281 261 225 209 213 213 216 215 213 223 231 240 247 248 278 7 352 335
289 289 289 289 289 290 291 292 293 293 295 297 289 285 283 278 274 269 261 263 267 268 272 279 275 273 279 258 241 211 213 214 215 216 215 221 227 236 244 257 291 311 321 331